| time (UTC) | temp F | wind direction | speed knots | gust knots | rain 1hr in | rain 24hr in | rain mn in | humidity % | barometer mb |
| 20260503055004 | 36 | 190 | 1.7 | 5.2 | 0.00 | 0.00 | 0.00 | 72 | 1015.6 |
| 20260503054001 | 36 | 185 | 1.7 | 4.3 | 0.00 | 0.00 | 0.00 | 72 | 1015.8 |
| 20260503053021 | 37 | 161 | 2.6 | 6.1 | 0.00 | 0.00 | 0.00 | 71 | 1015.7 |
| 20260503052033 | 37 | 192 | 2.6 | 5.2 | 0.00 | 0.00 | 0.00 | 70 | 1015.9 |
| 20260503051004 | 37 | 183 | 1.7 | 5.2 | 0.00 | 0.00 | 0.00 | 69 | 1016.0 |
| 20260503050003 | 37 | 188 | 1.7 | 3.5 | 0.00 | 0.00 | 0.00 | 68 | 1016.1 |
| 20260503044957 | 38 | 199 | 1.7 | 3.5 | 0.00 | 0.00 | 0.00 | 67 | 1016.2 |
| 20260503044028 | 38 | 200 | 0.9 | 3.5 | 0.00 | 0.00 | 0.00 | 66 | 1016.2 |
| 20260503043006 | 38 | 197 | 0.9 | 3.5 | 0.00 | 0.00 | 0.00 | 64 | 1016.3 |
| 20260503042014 | 39 | 198 | 0.9 | 2.6 | 0.00 | 0.00 | 0.00 | 63 | 1016.3 |
| 20260503041008 | 39 | 198 | 0.9 | 2.6 | 0.00 | 0.00 | 0.00 | 63 | 1016.4 |
| 20260503040012 | 39 | 198 | 1.7 | 4.3 | 0.00 | 0.00 | 0.00 | 63 | 1016.5 |
| 20260503035015 | 39 | 197 | 1.7 | 4.3 | 0.00 | 0.00 | 0.00 | 63 | 1016.6 |
| 20260503034004 | 39 | 195 | 2.6 | 5.2 | 0.00 | 0.00 | 0.00 | 62 | 1016.7 |
| 20260503033002 | 40 | 203 | 1.7 | 5.2 | 0.00 | 0.00 | 0.00 | 61 | 1016.8 |
| 20260503032003 | 40 | 209 | 1.7 | 4.3 | 0.00 | 0.00 | 0.00 | 60 | 1016.9 |
| 20260503031019 | 40 | 210 | 1.7 | 4.3 | 0.00 | 0.00 | 0.00 | 60 | 1016.9 |
| 20260503030003 | 40 | 211 | 1.7 | 3.5 | 0.00 | 0.00 | 0.00 | 59 | 1017.0 |
| 20260503025024 | 40 | 211 | 1.7 | 3.5 | 0.00 | 0.00 | 0.00 | 58 | 1017.1 |
| 20260503024010 | 40 | 214 | 1.7 | 4.3 | 0.00 | 0.00 | 0.00 | 57 | 1017.1 |
| 20260503023011 | 41 | 209 | 2.6 | 4.3 | 0.00 | 0.00 | 0.00 | 57 | 1017.2 |
| 20260503022007 | 41 | 213 | 2.6 | 4.3 | 0.00 | 0.00 | 0.00 | 56 | 1017.1 |
| 20260503021116 | 42 | 214 | 2.6 | 4.3 | 0.00 | 0.00 | 0.00 | 56 | 1017.3 |
| 20260503020008 | 42 | 250 | 0.9 | 4.3 | 0.00 | 0.00 | 0.00 | 58 | 1017.2 |
| 20260503015001 | 42 | 223 | 1.7 | 4.3 | 0.00 | 0.00 | 0.00 | 51 | 1017.2 |
| 20260503014003 | 42 | 234 | 1.7 | 4.3 | 0.00 | 0.00 | 0.00 | 50 | 1017.2 |
| 20260503013035 | 43 | 240 | 1.7 | 4.3 | 0.00 | 0.00 | 0.00 | 50 | 1017.1 |
| 20260503012028 | 43 | 236 | 1.7 | 4.3 | 0.00 | 0.00 | 0.00 | 49 | 1017.2 |
| 20260503011011 | 43 | 244 | 1.7 | 4.3 | 0.00 | 0.00 | 0.00 | 46 | 1017.2 |
| 20260503010111 | 44 | 254 | 1.7 | 4.3 | 0.00 | 0.00 | 0.00 | 46 | 1017.2 |
| 20260503005021 | 44 | 256 | 0.9 | 2.6 | 0.00 | 0.00 | 0.00 | 47 | 1017.2 |
| 20260503004020 | 45 | 257 | 2.6 | 5.2 | 0.00 | 0.00 | 0.00 | 46 | 1017.3 |
| 20260503003013 | 45 | 279 | 2.6 | 7.0 | 0.00 | 0.00 | 0.00 | 46 | 1017.1 |
| 20260503002007 | 46 | 277 | 3.5 | 7.8 | 0.00 | 0.00 | 0.00 | 45 | 1017.2 |
| 20260503001051 | 46 | 281 | 3.5 | 7.8 | 0.00 | 0.00 | 0.00 | 43 | 1017.2 |
| 20260503000014 | 47 | 248 | 2.6 | 7.0 | 0.00 | 0.00 | 0.00 | 42 | 1017.2 |
| 20260502234959 | 48 | 271 | 5.2 | 8.7 | 0.00 | 0.00 | 0.00 | 40 | 1017.3 |
| 20260502234032 | 49 | 281 | 4.3 | 12.2 | 0.00 | 0.00 | 0.00 | 37 | 1017.3 |
| 20260502233002 | 50 | 294 | 5.2 | 8.7 | 0.00 | 0.00 | 0.00 | 35 | 1017.3 |
| 20260502232002 | 50 | 271 | 3.5 | 8.7 | 0.00 | 0.00 | 0.00 | 36 | 1017.3 |
| 20260502231000 | 50 | 288 | 7.0 | 10.4 | 0.00 | 0.00 | 0.00 | 36 | 1017.4 |
| 20260502230000 | 50 | 313 | 4.3 | 12.2 | 0.00 | 0.00 | 0.00 | 35 | 1017.4 |
| 20260502225005 | 50 | 286 | 6.1 | 12.2 | 0.00 | 0.00 | 0.00 | 34 | 1017.5 |
| 20260502224000 | 50 | 268 | 6.1 | 13.9 | 0.00 | 0.00 | 0.00 | 36 | 1017.6 |
| 20260502222958 | 51 | 315 | 8.7 | 12.2 | 0.00 | 0.00 | 0.00 | 35 | 1017.6 |
| 20260502222002 | 51 | 267 | 6.1 | 15.6 | 0.00 | 0.00 | 0.00 | 36 | 1017.7 |
| 20260502221004 | 51 | 271 | 7.0 | 12.2 | 0.00 | 0.00 | 0.00 | 37 | 1017.7 |
| 20260502220005 | 51 | 304 | 6.1 | 12.2 | 0.00 | 0.00 | 0.00 | 37 | 1017.7 |
| 20260502215050 | 51 | 5 | 6.1 | 13.9 | 0.00 | 0.00 | 0.00 | 36 | 1017.6 |
| 20260502214013 | 51 | 277 | 4.3 | 14.8 | 0.00 | 0.00 | 0.00 | 44 | 1017.7 |
| 20260502213008 | 51 | 294 | 9.6 | 13.9 | 0.00 | 0.00 | 0.00 | 38 | 1017.8 |
| 20260502212003 | 51 | 286 | 9.6 | 16.5 | 0.00 | 0.00 | 0.00 | 41 | 1017.8 |
| 20260502211004 | 51 | 283 | 7.0 | 15.6 | 0.00 | 0.00 | 0.00 | 39 | 1017.8 |
| 20260502210002 | 51 | 278 | 7.8 | 13.0 | 0.00 | 0.00 | 0.00 | 43 | 1017.9 |
| 20260502205010 | 50 | 296 | 7.8 | 17.4 | 0.00 | 0.00 | 0.00 | 44 | 1018.0 |
| 20260502204007 | 50 | 323 | 9.6 | 15.6 | 0.00 | 0.00 | 0.00 | 43 | 1018.1 |
| 20260502203016 | 50 | 277 | 7.0 | 16.5 | 0.00 | 0.00 | 0.00 | 42 | 1018.2 |
| 20260502202021 | 50 | 300 | 5.2 | 20.0 | 0.00 | 0.00 | 0.00 | 40 | 1018.2 |
| 20260502201001 | 50 | 290 | 10.4 | 15.6 | 0.00 | 0.00 | 0.00 | 42 | 1018.4 |
| 20260502200000 | 50 | 288 | 9.6 | 18.2 | 0.00 | 0.00 | 0.00 | 43 | 1018.5 |
| 20260502195012 | 50 | 298 | 12.2 | 20.0 | 0.00 | 0.00 | 0.00 | 41 | 1018.6 |
| 20260502194000 | 50 | 295 | 5.2 | 20.0 | 0.00 | 0.00 | 0.00 | 46 | 1018.6 |
| 20260502193040 | 49 | 262 | 8.7 | 16.5 | 0.00 | 0.00 | 0.00 | 46 | 1018.8 |
| 20260502192006 | 49 | 297 | 10.4 | 18.2 | 0.00 | 0.00 | 0.00 | 42 | 1018.8 |
| 20260502191000 | 48 | 252 | 7.8 | 16.5 | 0.00 | 0.00 | 0.00 | 46 | 1018.8 |
| 20260502190001 | 48 | 279 | 11.3 | 18.2 | 0.00 | 0.00 | 0.00 | 44 | 1019.0 |
| 20260502185002 | 49 | 252 | 7.8 | 14.8 | 0.00 | 0.00 | 0.00 | 45 | 1019.0 |
| 20260502184006 | 49 | 284 | 6.1 | 18.2 | 0.00 | 0.00 | 0.00 | 44 | 1019.2 |
| 20260502183001 | 49 | 254 | 10.4 | 16.5 | 0.00 | 0.00 | 0.00 | 49 | 1019.1 |
| 20260502182012 | 49 | 325 | 7.0 | 16.5 | 0.00 | 0.00 | 0.00 | 46 | 1019.2 |
| 20260502181000 | 50 | 284 | 10.4 | 16.5 | 0.00 | 0.00 | 0.00 | 49 | 1019.2 |
| 20260502164003 | 47 | 304 | 8.7 | 15.6 | 0.00 | 0.00 | 0.00 | 54 | 1019.7 |
| 20260502163100 | 46 | 303 | 5.2 | 13.0 | 0.00 | 0.00 | 0.00 | 52 | 1019.6 |
| 20260502162001 | 46 | 264 | 6.1 | 10.4 | 0.00 | 0.00 | 0.00 | 53 | 1019.8 |
| 20260502161029 | 45 | 283 | 3.5 | 9.6 | 0.00 | 0.00 | 0.00 | 56 | 1019.8 |
| 20260502152000 | 45 | 332 | 5.2 | 10.4 | 0.00 | 0.00 | 0.00 | 53 | 1020.0 |
| 20260502151002 | 45 | 269 | 4.3 | 8.7 | 0.00 | 0.00 | 0.00 | 54 | 1019.8 |
| 20260502123005 | 36 | 351 | 4.3 | 7.8 | 0.00 | 0.00 | 0.00 | 84 | 1020.1 |
| 20260502122010 | 35 | 324 | 3.5 | 5.2 | 0.00 | 0.00 | 0.00 | 85 | 1020.2 |
| 20260502121017 | 34 | 28 | 1.7 | 7.0 | 0.00 | 0.00 | 0.00 | 85 | 1020.1 |
| 20260502114959 | 32 | 338 | 3.5 | 7.0 | 0.00 | 0.00 | 0.00 | 87 | 1020.0 |
| 20260502114005 | 31 | 336 | 3.5 | 4.3 | 0.00 | 0.00 | 0.00 | 88 | 1019.8 |
| 20260502113003 | 31 | 298 | 0.9 | 2.6 | 0.00 | 0.00 | 0.00 | 87 | 1019.7 |
| 20260502111958 | 31 | 298 | 1.7 | 2.6 | 0.00 | 0.00 | 0.00 | 86 | 1019.7 |
| 20260502110957 | 30 | 298 | 1.7 | 2.6 | 0.00 | 0.00 | 0.00 | 85 | 1019.7 |
| 20260502110000 | 31 | 298 | 1.7 | 2.6 | 0.00 | 0.00 | 0.00 | 83 | 1019.7 |
| 20260502105009 | 31 | 298 | 1.7 | 1.7 | 0.00 | 0.00 | 0.00 | 82 | 1019.7 |
| 20260502104008 | 31 | 298 | 0.9 | 2.6 | 0.00 | 0.00 | 0.00 | 80 | 1019.6 |
| 20260502103020 | 31 | 298 | 0.9 | 2.6 | 0.00 | 0.00 | 0.00 | 79 | 1019.7 |
| 20260502102031 | 32 | 298 | 1.7 | 2.6 | 0.00 | 0.00 | 0.00 | 79 | 1019.7 |
| 20260502101005 | 32 | 298 | 0.9 | 3.5 | 0.00 | 0.00 | 0.00 | 78 | 1019.7 |
| 20260502091015 | 34 | 291 | 2.6 | 4.3 | 0.00 | 0.00 | 0.00 | 76 | 1019.2 |
| 20260502071012 | 35 | 303 | 1.7 | 4.3 | 0.00 | 0.00 | 0.00 | 75 | 1019.1 |
| 20260502065959 | 35 | 300 | 2.6 | 4.3 | 0.00 | 0.00 | 0.00 | 76 | 1019.0 |
| 20260502064958 | 35 | 281 | 3.5 | 6.1 | 0.00 | 0.00 | 0.00 | 76 | 1019.1 |
| 20260502063958 | 35 | 288 | 2.6 | 4.3 | 0.00 | 0.00 | 0.00 | 76 | 1019.1 |